Regional Weather Roundup
Issued by NWS Northern Indiana

Home | Current Version | Previous Version | Text Only | Print | Product List | Glossary Off
Versions: 1 2 3 4 5 6 7 8 9 10 11 12 13 14 15 16 17 18 19 20 21 22 23 24 25 26 27 28 29 30 31 32 33 34 35 36 37 38 39 40 41 42 43 44 45 46 47 48 49 50

000
ASUS43 KIWX 300500
RWRIWX

KIWX WEATHER ROUNDUP
NATIONAL WEATHER SERVICE NORTHERN INDIANA
100 AM EDT THU JUL 30 2015

NOTE: "FAIR" INDICATES FEW OR NO CLOUDS BELOW 12,000 FEET WITH NO
SIGNIFICANT WEATHER AND/OR OBSTRUCTIONS TO VISIBILITY.

* THESE STATIONS ARE NOT UNDER NWS QUALITY CONTROL. THEY ALSO MAY NOT
  REPORT WEATHER SUCH AS PRECIPITATION OR FOG.

INZ001>027-300600-
NORTHERN INDIANA

CITY           SKY/WX    TMP DP  RH WIND       PRES   REMARKS
KNOX*          CLEAR     66  55  68 W7        30.02R
SOUTH BEND     CLEAR     67  60  78 SW6       30.01S
GOSHEN         CLEAR     64  58  80 SW5       30.01R
MONTICELLO*    PTCLDY    66  62  87 W5        30.03S
WARSAW*        CLEAR     64  59  82 W7        30.02S
ANGOLA*        CLEAR     66  57  72 W3        30.00S
FORT WAYNE     MOCLDY    66  62  87 W6        30.02R

$$
INZ028>050-300600-
CENTRAL INDIANA

CITY           SKY/WX    TMP DP  RH WIND       PRES   REMARKS
LAFAYETTE      PTCLDY    64  62  93 CALM      30.04S
KOKOMO*        MOCLDY    66  57  72 W6        30.04R
MUNCIE*        PTCLDY    71  61  70 NW8       30.03S
INDIANAPOLIS   MOCLDY    71  60  68 NW7       30.04S

$$
MIZ043>046-050>051-056>058-064>065-071>073-077>080-300600-
SOUTHWEST LOWER MICHIGAN

CITY           SKY/WX    TMP DP  RH WIND       PRES   REMARKS
BATTLE CREEK   CLEAR     70  57  63 W10       29.98S
BENTON HARBOR  CLEAR     72  62  71 W12       29.99R
COLDWATER*     CLEAR     64  56  75 SW3       29.99S
HILLSDALE*     CLEAR     68  58  70 W7        29.99S
HOLLAND        CLEAR     75  59  57 W10       29.97R
GRAND RAPIDS   CLEAR     71  59  65 W10       29.95S
KALAMAZOO      CLEAR     69  57  65 W7        29.98S
STURGIS*       CLEAR     66  57  72 CALM      29.99S
THREE RIVERS*  FAIR      67  56  70 W5        29.99S

$$
OHZ001>008-015>018-024>025-300600-
NORTHWEST OHIO

CITY           SKY/WX    TMP DP  RH WIND       PRES   REMARKS
DEFIANCE       CLEAR     68  59  73 W3        29.99R
FINDLAY        PTCLDY    70  61  73 NW7       29.98R
TOLEDO EXPRESS CLEAR     66  63  90 W6        29.97R
TOLEDO METCALF CLEAR     70  61  73 SW5       29.97S
LIMA           PTCLDY    70  59  68 NW7       30.00R

$$
AND FOR LAKE MICHIGAN COASTAL AND OPEN LAKE BUOY OBSERVATIONS

STATION/POSITION TEMP    WIND        PRES    VSBY  WAVE
                 AIR SEA DIR/SP/G                  HT/PER
                 (F)     (DEG/KT/KT) (MB)    (MI)  (FT/S)
MICHIGAN CITY     75     230/ 14/ 15   N/A
BURNS HARBOR      75     260/ 12/ 14 1016.6F
SAINT JOSEPH      75     230/  9/ 13 1015.6F
4 MI NW BRIDGMAN  76 75  300/ 14/ 16   N/A           3/ 3
MICHIGAN CITY     76 74  270/ 12/ 14   N/A           3/ 3

$$
&&



USA.gov is the U.S. government's official web portal to all federal, state and local government web resources and services.